カタログに戻る

STARLINK-35563

運用中通信VLEO
NORAD 66087·PAYLOAD·🇺🇸 United States

打ち上げ Oct 19, 2025 から Vandenberg Space Force Base

Loading…

次のパス (今後24時間)

TLE

最新Source: CelesTrak SupGP

元期: Sep 14, 2026, 20:46 UTC

1 66087C 25236B   26257.86576389 -.00002058  00000+0 -60848-4 0  2572
2 66087  53.1577 302.1430 0001177  80.6808 185.0712 15.34374526    11

AllMySatでSTARLINK-35563をリアルタイム追跡

Download on the App Store